Wind_Speed
30 32 34 35 36 36 36 35 34 33 32 31 31 31 31 32 32 32 32 33 34 34 34 33 33 33 33 33 32 31 29 28 27 25 23 22 21 20 19 19 19 20 21
17 19 21 22 23 24 25 25 26 26 27 27 27 26 26 26 26 27 28 29 30 31 32 31 31 30 29 28 28 28 27 25 25 23 21 20 20 20 19 19 19 19 21
3 5 7 9 11 12 14 15 17 18 19 19 18 18 18 19 19 19 21 23 24 26 26 26 26 25 25 24 25 25 24 23 22 22 20 20 20 20 19 19 19 20 21
12 10 8 6 5 5 5 6 7 7 8 9 10 11 12 14 15 16 17 17 18 19 19 19 20 20 21 22 22 22 22 21 21 20 20 19 20 20 20 19 19 20 21
16 15 14 12 11 10 9 9 9 9 9 10 11 12 13 14 15 15 16 16 16 16 16 17 17 18 18 20 20 20 19 19 19 19 20 19 20 20 20 19 19 18 19
16 15 14 13 13 12 12 11 11 12 12 12 13 13 14 15 15 16 17 17 18 18 18 18 19 19 19 20 20 19 19 18 18 19 20 20 20 20 20 19 18 17 17
17 17 16 16 15 15 14 14 14 14 14 14 15 15 16 16 16 17 17 18 18 19 19 20 21 21 21 21 20 19 18 18 18 19 20 20 21 21 20 20 18 16 15
19 18 18 18 17 17 17 17 16 16 17 17 18 18 18 18 18 17 17 17 18 19 19 21 22 22 22 21 20 18 17 17 17 18 18 19 20 20 20 19 18 17 16
19 19 19 19 19 18 18 18 18 18 18 18 19 19 19 18 18 17 17 17 17 18 19 20 21 22 22 21 19 18 16 15 15 15 15 16 17 18 18 18 17 16 16
19 20 21 21 21 21 20 20 18 18 18 18 17 16 16 16 15 15 15 16 16 17 18 19 20 20 20 19 19 18 16 14 13 13 12 12 13 14 15 16 16 15 15
20 21 22 23 23 23 22 21 20 19 19 18 16 15 14 12 12 12 13 14 15 15 16 17 18 19 19 19 17 17 16 15 13 12 11 11 10 11 12 13 14 14 14
20 21 22 23 24 25 25 24 22 22 21 20 18 16 14 12 11 10 11 11 12 12 13 14 15 16 17 17 17 16 15 14 13 12 10 9 9 9 9 11 11 12 11
19 20 22 23 24 25 25 25 25 24 24 23 21 19 17 15 13 12 11 9 8 8 9 10 12 13 14 15 15 15 14 14 13 11 10 8 7 7 7 7 7 7 7
18 19 21 22 24 25 25 25 25 26 26 25 24 23 21 19 17 15 13 11 8 6 6 7 9 11 12 13 14 14 14 13 12 11 10 9 7 6 5 4 4 3 3
18 18 20 21 22 23 24 25 25 26 26 26 27 27 27 25 23 22 20 17 13 8 3 2 6 9 11 13 13 12 12 11 11 10 10 9 7 5 4 3 2 0 1
17 18 18 19 20 22 23 24 25 25 26 26 27 28 29 29 29 28 27 25 22 17 13 11 10 10 11 12 12 12 12 12 11 10 9 9 8 6 5 4 4 4 4
17 18 18 18 19 20 21 22 23 24 24 25 26 27 28 30 31 31 31 30 28 26 24 21 18 17 15 15 15 15 14 13 12 11 11 10 9 8 7 7 6 6 6
17 17 17 17 18 18 19 20 21 22 22 23 24 25 27 28 30 31 31 31 31 30 28 26 24 22 20 19 18 17 16 15 14 13 12 11 10 10 9 8 8 7 7
16 17 17 17 17 17 18 19 20 21 21 22 23 23 24 25 26 27 28 29 29 29 28 27 26 24 22 21 20 19 17 16 14 14 13 12 11 10 9 8 8 7 8
14 16 17 17 17 17 17 17 18 19 20 21 21 22 22 23 23 24 24 25 25 25 25 24 24 23 22 21 19 18 17 16 16 14 13 12 11 10 9 8 8 8 9
12 14 16 16 16 16 16 16 17 17 18 19 20 20 21 21 21 21 21 21 21 21 21 20 20 19 18 18 17 16 16 15 14 12 11 10 10 9 8 8 8 8 9
9 11 13 14 15 15 15 15 16 16 17 17 18 18 19 19 20 20 20 20 19 19 18 17 16 16 14 14 13 12 12 11 10 9 9 8 8 8 7 8 8 9 10
7 9 10 12 13 14 14 15 15 15 16 16 16 16 17 18 18 19 19 19 19 19 19 18 17 17 15 14 13 11 10 9 9 8 8 8 7 7 7 7 7 8 10
7 8 9 10 10 11 12 13 14 14 14 14 14 14 15 15 16 17 17 18 18 19 19 19 19 19 18 17 16 14 13 12 10 9 9 8 7 6 6 6 7 8 9
8 8 8 9 9 10 10 11 12 12 12 13 12 12 12 12 13 14 14 15 16 16 17 17 18 18 18 18 17 16 15 14 13 11 9 7 6 5 5 6 7 7 8
9 9 9 9 9 9 9 9 10 10 10 11 10 10 10 10 10 10 10 11 12 13 13 14 14 15 15 15 15 15 14 13 12 11 9 8 7 6 6 6 6 7 9
Wind_Direction
257 260 262 264 266 268 270 270 271 269 267 267 266 265 262 260 259 256 255 255 255 255 253 253 252 251 249 250 249 249 251 254 254 254 253 253 253 252 252 257 261 262 263
262 264 265 266 268 269 270 269 268 267 268 268 268 266 264 263 258 252 251 248 246 248 249 247 246 246 246 246 246 248 249 250 250 250 250 250 249 250 253 258 262 265 265
294 280 277 277 277 277 276 273 270 271 271 270 267 262 256 248 242 240 239 239 241 242 240 241 241 241 242 243 245 247 248 248 248 248 248 248 247 248 251 256 262 266 265
61 57 49 32 11 352 333 315 307 298 292 285 276 265 256 250 247 244 241 240 241 242 242 242 241 241 242 244 246 248 249 249 248 248 248 247 246 246 249 254 260 264 263
53 52 48 43 38 28 17 5 354 342 329 322 314 303 295 286 280 275 268 265 265 262 258 253 248 246 246 248 248 249 251 251 249 248 247 246 245 245 246 251 258 263 265
52 50 46 39 32 24 15 5 355 345 336 326 318 309 301 294 287 281 277 273 270 266 263 259 255 253 252 251 250 250 251 251 251 249 247 246 245 245 246 248 253 262 264
48 44 39 33 27 20 13 4 355 345 337 328 319 310 301 294 286 279 273 268 263 259 255 251 248 249 249 250 251 252 252 251 250 249 247 246 246 245 246 248 251 256 262
45 41 35 28 21 13 5 357 349 341 333 325 317 309 300 293 287 282 277 272 265 259 253 248 245 243 244 247 247 248 250 249 249 248 247 246 246 246 246 247 250 252 258
40 35 30 24 17 11 4 357 351 344 337 329 320 311 302 294 287 281 276 272 267 260 254 249 244 243 243 245 244 242 241 240 240 242 244 246 246 245 245 245 247 251 254
36 32 27 22 19 15 10 6 3 358 352 345 338 328 316 304 293 285 280 276 270 262 255 249 244 243 241 241 239 236 233 234 237 238 239 241 243 243 244 245 246 248 251
33 30 25 22 20 17 15 12 10 9 6 3 359 354 345 333 317 301 292 285 277 266 256 249 245 241 237 235 233 232 230 231 233 233 234 236 240 243 244 244 245 247 251
33 30 26 24 23 22 22 21 21 20 18 16 13 10 5 359 347 332 317 302 288 273 260 250 243 238 235 232 228 226 226 228 229 226 225 228 232 239 242 240 243 247 252
32 29 26 25 25 25 26 27 28 28 29 28 26 23 19 13 5 356 345 331 310 286 264 249 237 231 228 224 220 219 220 223 224 220 216 216 218 227 230 230 231 237 247
32 30 27 27 27 27 28 29 31 33 34 35 35 33 30 27 23 17 9 358 345 317 277 246 232 220 215 212 211 213 215 214 214 210 207 202 200 202 204 206 212 232 263
33 31 29 27 27 27 29 31 32 34 36 37 37 37 37 37 36 33 30 28 26 23 26 179 190 192 194 195 197 198 198 197 194 193 191 188 183 172 167 166 173 201 357
36 32 29 28 27 27 29 31 33 34 36 36 38 38 39 40 40 41 42 44 47 56 69 89 116 138 151 160 166 168 168 169 169 168 166 160 154 148 140 127 106 82 53
37 33 29 26 26 27 29 31 33 34 35 37 38 38 39 40 42 44 47 51 56 64 72 82 94 108 117 127 136 142 145 146 146 143 141 139 135 127 118 107 93 74 52
37 33 30 27 25 26 28 30 32 34 35 36 37 38 39 41 43 46 49 54 59 65 71 78 86 95 103 109 116 120 123 125 126 126 125 122 117 112 105 95 83 67 51
35 33 30 28 27 26 27 29 31 33 35 37 38 38 39 41 43 47 50 54 59 64 70 76 81 86 92 97 102 107 110 112 113 113 112 109 105 99 92 85 76 63 48
32 31 29 29 28 27 26 27 29 31 34 36 37 38 39 41 44 47 50 54 58 62 67 72 77 82 86 90 94 96 99 101 103 103 101 97 93 90 84 77 68 55 41
24 26 26 27 27 27 26 26 27 28 30 32 35 37 39 41 45 48 51 53 57 61 64 68 72 76 80 84 86 88 90 92 94 95 93 91 89 85 78 70 59 46 37
10 16 20 23 24 25 25 26 26 26 28 30 33 36 39 43 46 50 52 55 58 60 63 65 68 71 74 77 80 83 86 89 91 92 90 89 87 82 73 63 52 42 35
352 1 8 14 19 21 22 23 24 24 26 28 32 35 40 44 48 52 54 57 59 61 63 65 66 69 71 74 75 78 80 83 86 88 90 89 85 78 69 60 49 41 34
326 336 347 357 6 12 16 18 19 21 22 25 29 34 39 44 49 52 55 57 60 62 64 65 66 66 68 71 73 74 76 78 80 83 85 84 81 74 65 55 45 37 29
304 314 324 334 346 355 2 6 10 12 15 19 24 30 37 43 48 52 55 56 58 59 61 63 64 63 63 64 66 68 70 72 73 73 72 70 68 60 51 42 33 23 15
288 295 303 311 322 333 343 349 354 359 3 8 13 19 27 36 44 51 56 57 57 56 57 58 58 58 58 58 58 60 61 62 63 61 58 53 46 38 28 18 7 359 353
Height
5791 5793 5794 5794 5795 5794 5794 5794 5794 5794 5794 5795 5794 5794 5794 5794 5794 5795 5796 5797 5798 5799 5800 5801 5802 5803 5804 5806 5809 5811 5813 5814 5815 5816 5818 5818 5818 5818 5818 5818 5818 5818 5818
5786 5787 5788 5788 5788 5787 5787 5787 5787 5787 5787 5787 5786 5786 5786 5786 5786 5787 5788 5788 5789 5790 5792 5792 5794 5795 5797 5799 5802 5804 5806 5807 5808 5809 5811 5811 5812 5813 5813 5812 5812 5812 5812
5784 5784 5784 5784 5784 5784 5783 5783 5782 5782 5782 5781 5780 5780 5779 5780 5780 5780 5781 5782 5783 5783 5784 5785 5787 5788 5790 5793 5795 5797 5799 5800 5801 5802 5804 5805 5806 5807 5807 5807 5807 5807 5806
5785 5785 5784 5784 5784 5783 5782 5781 5780 5779 5779 5778 5776 5776 5776 5775 5775 5775 5775 5776 5776 5777 5778 5779 5781 5782 5784 5787 5789 5791 5792 5793 5794 5795 5797 5798 5799 5801 5801 5801 5801 5801 5801
5789 5788 5787 5786 5785 5784 5783 5781 5779 5778 5777 5775 5774 5773 5772 5771 5771 5770 5770 5770 5771 5772 5773 5774 5776 5777 5779 5781 5783 5785 5786 5787 5788 5789 5791 5792 5794 5795 5795 5796 5796 5796 5796
5791 5790 5789 5788 5786 5784 5783 5781 5778 5776 5775 5773 5771 5770 5768 5767 5766 5766 5766 5766 5766 5767 5768 5769 5770 5772 5773 5775 5777 5778 5779 5781 5782 5784 5785 5786 5788 5789 5790 5790 5791 5791 5791
5794 5793 5791 5789 5787 5784 5782 5779 5777 5774 5772 5770 5768 5766 5764 5762 5761 5760 5760 5760 5760 5761 5762 5763 5764 5766 5767 5769 5770 5772 5773 5775 5777 5778 5780 5781 5782 5783 5784 5785 5786 5786 5787
5797 5795 5793 5791 5788 5785 5782 5778 5775 5772 5769 5766 5763 5761 5759 5757 5756 5754 5754 5754 5754 5754 5755 5756 5758 5759 5761 5762 5764 5766 5768 5769 5771 5773 5774 5775 5777 5778 5779 5780 5781 5782 5783
5800 5798 5795 5792 5789 5785 5781 5777 5773 5769 5766 5762 5758 5755 5753 5751 5749 5748 5748 5748 5748 5748 5749 5750 5751 5753 5755 5757 5759 5761 5763 5765 5766 5768 5769 5770 5771 5773 5774 5776 5777 5778 5779
5803 5801 5797 5794 5790 5786 5782 5777 5772 5768 5763 5759 5754 5750 5747 5745 5743 5742 5742 5742 5742 5742 5742 5744 5745 5747 5749 5751 5754 5756 5758 5760 5762 5764 5765 5766 5767 5768 5769 5771 5773 5774 5775
5806 5802 5799 5795 5791 5786 5782 5777 5772 5767 5762 5757 5753 5749 5745 5742 5739 5738 5737 5736 5736 5736 5736 5737 5739 5741 5743 5746 5749 5751 5754 5756 5758 5760 5762 5763 5764 5765 5766 5767 5769 5770 5771
5808 5805 5801 5797 5793 5788 5783 5778 5773 5768 5763 5758 5753 5749 5745 5742 5739 5736 5734 5732 5730 5730 5730 5731 5733 5735 5738 5741 5744 5747 5750 5753 5755 5757 5759 5761 5762 5763 5764 5765 5766 5767 5768
5810 5807 5804 5799 5795 5790 5786 5781 5776 5771 5766 5761 5756 5751 5747 5743 5739 5735 5732 5729 5727 5726 5725 5726 5728 5730 5733 5736 5740 5744 5747 5750 5753 5755 5757 5759 5760 5761 5762 5763 5764 5765 5766
5813 5810 5806 5802 5798 5793 5789 5784 5780 5775 5770 5765 5760 5755 5750 5745 5740 5736 5731 5727 5724 5722 5721 5722 5723 5725 5729 5732 5736 5740 5744 5748 5750 5753 5755 5757 5759 5760 5761 5762 5763 5764 5764
5815 5812 5809 5805 5801 5797 5792 5788 5783 5779 5774 5769 5764 5759 5754 5748 5743 5738 5732 5727 5723 5720 5718 5718 5720 5723 5726 5730 5734 5739 5743 5746 5749 5752 5754 5756 5758 5760 5761 5762 5763 5763 5763
5817 5814 5811 5808 5804 5800 5796 5792 5787 5783 5778 5774 5769 5764 5759 5753 5748 5742 5736 5731 5726 5722 5720 5719 5721 5723 5727 5731 5735 5739 5743 5746 5749 5751 5754 5756 5759 5760 5761 5762 5763 5763 5763
5820 5817 5814 5810 5807 5803 5799 5795 5791 5787 5783 5779 5774 5769 5764 5759 5754 5748 5743 5738 5733 5730 5727 5727 5727 5729 5732 5735 5738 5741 5745 5748 5750 5753 5755 5757 5759 5761 5762 5763 5763 5763 5762
5822 5819 5816 5813 5810 5807 5803 5799 5795 5791 5787 5783 5779 5775 5770 5766 5761 5756 5751 5747 5743 5740 5738 5737 5737 5738 5740 5741 5744 5746 5749 5751 5753 5756 5758 5759 5761 5762 5763 5763 5764 5764 5763
5825 5822 5819 5816 5813 5810 5806 5803 5799 5795 5791 5788 5784 5780 5776 5772 5768 5764 5760 5756 5753 5751 5749 5748 5748 5748 5748 5749 5751 5753 5754 5756 5758 5759 5761 5762 5763 5764 5765 5765 5765 5764 5763
5828 5825 5822 5819 5815 5812 5809 5806 5803 5799 5795 5792 5788 5784 5781 5777 5774 5770 5767 5764 5762 5760 5759 5758 5757 5757 5757 5757 5758 5759 5760 5761 5762 5763 5764 5765 5766 5766 5766 5766 5766 5765 5764
5830 5827 5824 5821 5818 5815 5812 5809 5806 5802 5799 5796 5792 5789 5786 5782 5779 5776 5773 5771 5769 5767 5766 5765 5764 5764 5764 5764 5764 5765 5765 5766 5766 5767 5767 5768 5768 5768 5768 5767 5766 5765 5764
5831 5829 5826 5823 5820 5817 5814 5812 5809 5806 5802 5799 5796 5793 5790 5787 5784 5781 5779 5776 5774 5773 5771 5770 5770 5769 5769 5769 5769 5769 5769 5769 5769 5769 5769 5769 5769 5769 5769 5768 5767 5766 5764
5831 5830 5828 5825 5822 5819 5817 5814 5811 5808 5806 5803 5800 5797 5794 5791 5789 5786 5784 5782 5780 5778 5776 5775 5774 5773 5773 5772 5772 5772 5772 5771 5771 5771 5771 5771 5771 5770 5770 5769 5768 5766 5765
5831 5829 5828 5826 5824 5821 5819 5816 5813 5811 5808 5806 5803 5800 5798 5795 5793 5791 5789 5787 5785 5783 5782 5780 5779 5778 5777 5776 5775 5775 5774 5774 5773 5773 5773 5773 5772 5772 5771 5770 5769 5767 5765
5829 5828 5827 5826 5824 5822 5820 5818 5815 5813 5811 5808 5806 5804 5801 5799 5797 5795 5793 5792 5790 5789 5787 5786 5784 5783 5782 5780 5779 5778 5777 5777 5776 5776 5775 5775 5774 5774 5773 5771 5770 5768 5766
5827 5826 5825 5824 5823 5821 5820 5818 5816 5814 5812 5810 5808 5806 5804 5802 5800 5798 5797 5795 5794 5793 5791 5790 5789 5788 5786 5785 5784 5783 5782 5781 5780 5779 5778 5777 5776 5775 5774 5772 5770 5768 5766